Tracking 29892 objects as of 21-Nov-2024
HD Live streaming from Space Station
objects crossing your sky now

FENGYUN 1C DEB

Track FENGYUN 1C DEB now!
10-day predictions


NORAD ID: 30319
Int'l Code: 1999-025AAG
Perigee: 580.9 km
Apogee: 617.4 km
Inclination: 98.3 °
Period: 96.5 minutes
Semi major axis: 6970 km
RCS: 0.0157 m2 (small)
Launch date: May 10, 1999
Source: People's Republic of China (PRC)
Launch site: Taiyaun Space Center, China (TSC)

Note: This is SATELLITE DEBRIS
Your satellite tracking list
Your tracking list is empty




NASA's NSSDC Master Catalog

Two Line Element Set (TLE):
1 30319U 99025AAG 24324.06211274  .00122850  00000-0  11874-1 0  9999
2 30319  98.2637 352.3053 0026237 228.6012 186.5272 14.91903767923625
Source of the keplerian elements: AFSPC